Home > Products > Valid Products > RWR

000
ASUS44 KOUN 282110
RWROK

WEATHER ROUNDUP FOR OKLAHOMA
NATIONAL WEATHER SERVICE NORMAN OK
400 PM CDT SAT MAY 28 2016

NOTE: "FAIR" INDICATES FEW OR NO CLOUDS BELOW 12,000 FEET WITH NO
      SIGNIFICANT WEATHER AND/OR OBSTRUCTIONS TO VISIBILITY.

OKZ001>007-009>012-014-015-017-282200-
NORTHWEST OKLAHOMA AND THE PANHANDLE

CITY           SKY/WX    TMP DP  RH WIND       PRES   REMARKS
GAGE           SUNNY     84  47  27 NE7       29.96F
GUYMON         SUNNY     80  43  26 W10       29.99F
ENID/WOODRING  MOSUNNY   88  52  29 W5        29.93R
$$

OKZ016-021>023-033>039-044-045-282200-
SOUTHWEST OKLAHOMA

CITY           SKY/WX    TMP DP  RH WIND       PRES   REMARKS
LAWTON/REGL    SUNNY     83  64  52 NE6       29.95S
LAWTON/FT SILL SUNNY     81  66  59 VRB6      29.94S
CLINTON        SUNNY     85  48  27 VRB5      29.98S
HOBART         SUNNY     87  52  29 VRB3      29.96S
ALTUS AFB      SUNNY     85  50  29 VRB2      29.94S
$$

OKZ018>020-024>031-282200-
CENTRAL OKLAHOMA

CITY           SKY/WX    TMP DP  RH WIND       PRES   REMARKS
OKLAHOMA CITY  MOSUNNY   83  64  52 S8        29.95S
OKC/WILEY POST SUNNY     83  57  41 CALM      29.95S
OKC/TINKER AFB SUNNY     80  64  57 VRB7      29.95S
STILLWATER     SUNNY     83  59  44 VRB5      29.94S
GUTHRIE        SUNNY     83  56  39 VRB3      29.95S
$$

OKZ008-013-054>072-282200-
NORTHEAST OKLAHOMA

CITY           SKY/WX    TMP DP  RH WIND       PRES   REMARKS
TULSA          PTSUNNY   81  64  56 S8        29.93R
TULSA/JONES    PTSUNNY   80  63  55 S10       29.95R
PONCA CITY     SUNNY     82  57  42 VRB7      29.93S
BARTLESVILLE   SUNNY     82  60  47 SW7       29.95R
MUSKOGEE       PTSUNNY   81  65  58 S7        29.96S
$$

OKZ032-040>043-046>053-073>077-282200-
SOUTH CENTRAL/SOUTHEAST OKLAHOMA

CITY           SKY/WX    TMP DP  RH WIND       PRES   REMARKS
ARDMORE/DWNTWN MOSUNNY   82  66  57 S7        29.94S
MCALESTER      SUNNY     82  66  58 S7        29.96S
$$







000
ASUS44 KOUN 281500
RWROK

WEATHER ROUNDUP FOR OKLAHOMA
NATIONAL WEATHER SERVICE NORMAN OK
1000 AM CDT SAT MAY 28 2016

NOTE: "FAIR" INDICATES FEW OR NO CLOUDS BELOW 12,000 FEET WITH NO
      SIGNIFICANT WEATHER AND/OR OBSTRUCTIONS TO VISIBILITY.

OKZ001>007-009>012-014-015-017-281600-
NORTHWEST OKLAHOMA AND THE PANHANDLE

CITY           SKY/WX    TMP DP  RH WIND       PRES   REMARKS
GAGE           SUNNY     66  51  58 W6        29.98R
GUYMON         SUNNY     65  47  52 N6        30.02R
$$

OKZ016-021>023-033>039-044-045-281600-
SOUTHWEST OKLAHOMA

CITY           SKY/WX    TMP DP  RH WIND       PRES   REMARKS
LAWTON/REGL    CLOUDY    66  64  93 E3        29.96R
LAWTON/FT SILL LGT RAIN  66  66 100 CALM      29.95R
CLINTON        SUNNY     71  52  50 VRB3      29.98R
HOBART         SUNNY     70  53  54 VRB3      29.98R
$$

OKZ018>020-024>031-281600-
CENTRAL OKLAHOMA

CITY           SKY/WX    TMP DP  RH WIND       PRES   REMARKS
OKLAHOMA CITY  MOSUNNY   70  61  73 S6        29.95R
OKC/WILEY POST SUNNY     69  61  75 SW7       29.95R
OKC/TINKER AFB MOSUNNY   70  61  73 VRB5      29.94R
STILLWATER     SUNNY     68  57  68 SW9       29.94R
GUTHRIE        SUNNY     69  56  62 SW7       29.95R
$$

OKZ008-013-054>072-281600-
NORTHEAST OKLAHOMA

CITY           SKY/WX    TMP DP  RH WIND       PRES   REMARKS
TULSA          MOSUNNY   73  63  70 SW14G20   29.91R
TULSA/JONES    PTSUNNY   71  63  75 SW8       29.92R
PONCA CITY     SUNNY     68  57  68 W6        29.91R
BARTLESVILLE   SUNNY     72  61  68 SW10      29.92R
MUSKOGEE       CLOUDY    71  64  78 SW10      29.96R
$$

OKZ032-040>043-046>053-073>077-281600-
SOUTH CENTRAL/SOUTHEAST OKLAHOMA

CITY           SKY/WX    TMP DP  RH WIND       PRES   REMARKS
MCALESTER      CLOUDY    69  63  81 S6        29.97R
$$







000
ASUS44 KOUN 281410
RWROK

WEATHER ROUNDUP FOR OKLAHOMA
NATIONAL WEATHER SERVICE NORMAN OK
900 AM CDT SAT MAY 28 2016

NOTE: "FAIR" INDICATES FEW OR NO CLOUDS BELOW 12,000 FEET WITH NO
      SIGNIFICANT WEATHER AND/OR OBSTRUCTIONS TO VISIBILITY.

OKZ001>007-009>012-014-015-017-281500-
NORTHWEST OKLAHOMA AND THE PANHANDLE

CITY           SKY/WX    TMP DP  RH WIND       PRES   REMARKS
GAGE           SUNNY     61  50  67 W8        29.97R
GUYMON         SUNNY     62  46  55 N9        30.00R
ENID/WOODRING  SUNNY     66  55  68 W7        29.90R
$$

OKZ016-021>023-033>039-044-045-281500-
SOUTHWEST OKLAHOMA

CITY           SKY/WX    TMP DP  RH WIND       PRES   REMARKS
LAWTON/REGL    CLOUDY    66  64  93 SE3       29.93R
LAWTON/FT SILL CLOUDY    65  65 100 CALM      29.92R
CLINTON        SUNNY     66  51  58 N14       29.95R
HOBART         SUNNY     67  53  61 NE6       29.95R
ALTUS AFB      MOSUNNY   67  51  56 NE7       29.94R
$$

OKZ018>020-024>031-281500-
CENTRAL OKLAHOMA

CITY           SKY/WX    TMP DP  RH WIND       PRES   REMARKS
OKLAHOMA CITY  PTSUNNY   67  62  84 S7        29.94R
OKC/WILEY POST MOSUNNY   67  61  81 SW9       29.94R
OKC/TINKER AFB MOSUNNY   68  61  77 S9        29.93R
STILLWATER     SUNNY     66  56  70 SW7       29.92R
GUTHRIE        SUNNY     67  55  65 W6        29.93R
$$

OKZ008-013-054>072-281500-
NORTHEAST OKLAHOMA

CITY           SKY/WX    TMP DP  RH WIND       PRES   REMARKS
TULSA          CLOUDY    70  64  81 SW7       29.90R
TULSA/JONES    CLOUDY    70  63  78 SW10      29.91R
PONCA CITY     SUNNY     64  56  75 W5        29.89R
BARTLESVILLE   SUNNY     70  60  70 SW15G21   29.90R
MUSKOGEE       CLOUDY    70  63  78 S13G20    29.94R
$$

OKZ032-040>043-046>053-073>077-281500-
SOUTH CENTRAL/SOUTHEAST OKLAHOMA

CITY           SKY/WX    TMP DP  RH WIND       PRES   REMARKS
ARDMORE/DWNTWN CLOUDY    68  61  77 SW5       29.95R
MCALESTER      CLOUDY    68  63  84 VRB3      29.96R
$$







000
ASUS44 KOUN 281400
RWROK

WEATHER ROUNDUP FOR OKLAHOMA
NATIONAL WEATHER SERVICE NORMAN OK
900 AM CDT SAT MAY 28 2016

NOTE: "FAIR" INDICATES FEW OR NO CLOUDS BELOW 12,000 FEET WITH NO
      SIGNIFICANT WEATHER AND/OR OBSTRUCTIONS TO VISIBILITY.

OKZ001>007-009>012-014-015-017-281500-
NORTHWEST OKLAHOMA AND THE PANHANDLE

CITY           SKY/WX    TMP DP  RH WIND       PRES   REMARKS
GAGE           SUNNY     61  50  67 W8        29.97R
GUYMON         SUNNY     62  46  55 N9        30.00R
ENID/WOODRING  SUNNY     66  55  68 W7        29.90R
$$

OKZ016-021>023-033>039-044-045-281500-
SOUTHWEST OKLAHOMA

CITY           SKY/WX    TMP DP  RH WIND       PRES   REMARKS
LAWTON/REGL    CLOUDY    66  64  93 SE3       29.93R
LAWTON/FT SILL CLOUDY    65  65 100 CALM      29.92R
CLINTON        SUNNY     66  51  58 N14       29.95R
HOBART         SUNNY     67  53  61 NE6       29.95R
$$

OKZ018>020-024>031-281500-
CENTRAL OKLAHOMA

CITY           SKY/WX    TMP DP  RH WIND       PRES   REMARKS
OKLAHOMA CITY  PTSUNNY   67  62  84 S7        29.94R
OKC/WILEY POST MOSUNNY   67  61  81 SW9       29.94R
OKC/TINKER AFB PTSUNNY   68  63  83 S9        29.93R
STILLWATER     SUNNY     66  56  70 SW7       29.92R
GUTHRIE        SUNNY     67  55  65 W6        29.93R
$$

OKZ008-013-054>072-281500-
NORTHEAST OKLAHOMA

CITY           SKY/WX    TMP DP  RH WIND       PRES   REMARKS
TULSA          CLOUDY    70  64  81 SW7       29.90R
TULSA/JONES    CLOUDY    70  63  78 SW10      29.91R
PONCA CITY     SUNNY     64  56  75 W5        29.89R
BARTLESVILLE   SUNNY     70  60  70 SW15G21   29.90R
MUSKOGEE       CLOUDY    70  63  78 S13G20    29.94R
$$

OKZ032-040>043-046>053-073>077-281500-
SOUTH CENTRAL/SOUTHEAST OKLAHOMA

CITY           SKY/WX    TMP DP  RH WIND       PRES   REMARKS
MCALESTER      CLOUDY    68  63  84 VRB3      29.96R
$$







000
ASUS44 KOUN 281310
RWROK

WEATHER ROUNDUP FOR OKLAHOMA
NATIONAL WEATHER SERVICE NORMAN OK
800 AM CDT SAT MAY 28 2016

NOTE: "FAIR" INDICATES FEW OR NO CLOUDS BELOW 12,000 FEET WITH NO
      SIGNIFICANT WEATHER AND/OR OBSTRUCTIONS TO VISIBILITY.

OKZ001>007-009>012-014-015-017-281400-
NORTHWEST OKLAHOMA AND THE PANHANDLE

CITY           SKY/WX    TMP DP  RH WIND       PRES   REMARKS
GAGE           SUNNY     56  50  80 W8        29.95R
GUYMON         SUNNY     54  44  69 NW7       29.98R
ENID/WOODRING  MOSUNNY   63  54  72 W8        29.83F
$$

OKZ016-021>023-033>039-044-045-281400-
SOUTHWEST OKLAHOMA

CITY           SKY/WX    TMP DP  RH WIND       PRES   REMARKS
LAWTON/REGL    CLOUDY    65  63  93 CALM      29.92R
LAWTON/FT SILL CLOUDY    64  64 100 S5        29.91R
CLINTON        SUNNY     60  49  66 NW14      29.93R
HOBART         MOSUNNY   63  51  65 N5        29.93R
ALTUS AFB      MOSUNNY   62  53  70 N5        29.92R
$$

OKZ018>020-024>031-281400-
CENTRAL OKLAHOMA

CITY           SKY/WX    TMP DP  RH WIND       PRES   REMARKS
OKLAHOMA CITY  CLOUDY    65  64  97 S6        29.91R
OKC/WILEY POST SUNNY     66  56  70 W3        29.91R
OKC/TINKER AFB PTSUNNY   65  63  91 S9        29.91R
STILLWATER     SUNNY     63  56  78 SW6       29.89R
GUTHRIE        SUNNY     64  57  78 W7        29.89R
$$

OKZ008-013-054>072-281400-
NORTHEAST OKLAHOMA

CITY           SKY/WX    TMP DP  RH WIND       PRES   REMARKS
TULSA          PTSUNNY   68  64  87 SW10      29.87R
TULSA/JONES    CLOUDY    68  63  84 S12       29.89R
PONCA CITY     SUNNY     62  55  77 W7        29.86R
BARTLESVILLE   MOSUNNY   67  61  81 SW14      29.88R
MUSKOGEE       CLOUDY    68  63  84 SW6       29.92R
$$

OKZ032-040>043-046>053-073>077-281400-
SOUTH CENTRAL/SOUTHEAST OKLAHOMA

CITY           SKY/WX    TMP DP  RH WIND       PRES   REMARKS
ARDMORE/DWNTWN CLOUDY    68  63  83 S3        29.92R
MCALESTER      CLOUDY    68  62  81 S7        29.92R
$$







000
ASUS44 KOUN 281300
RWROK

WEATHER ROUNDUP FOR OKLAHOMA
NATIONAL WEATHER SERVICE NORMAN OK
800 AM CDT SAT MAY 28 2016

NOTE: "FAIR" INDICATES FEW OR NO CLOUDS BELOW 12,000 FEET WITH NO
      SIGNIFICANT WEATHER AND/OR OBSTRUCTIONS TO VISIBILITY.

OKZ001>007-009>012-014-015-017-281400-
NORTHWEST OKLAHOMA AND THE PANHANDLE

CITY           SKY/WX    TMP DP  RH WIND       PRES   REMARKS
GAGE           SUNNY     56  50  80 W8        29.95R
GUYMON         SUNNY     54  44  69 NW7       29.98R
ENID/WOODRING  MOSUNNY   63  54  72 W8        29.83F
$$

OKZ016-021>023-033>039-044-045-281400-
SOUTHWEST OKLAHOMA

CITY           SKY/WX    TMP DP  RH WIND       PRES   REMARKS
LAWTON/REGL    CLOUDY    65  63  93 CALM      29.92R
LAWTON/FT SILL CLOUDY    65  65 100 SW5       29.91R
CLINTON        SUNNY     60  49  66 NW14      29.93R
HOBART         MOSUNNY   63  51  65 N5        29.93R
$$

OKZ018>020-024>031-281400-
CENTRAL OKLAHOMA

CITY           SKY/WX    TMP DP  RH WIND       PRES   REMARKS
OKLAHOMA CITY  CLOUDY    65  64  97 S6        29.91R
OKC/WILEY POST SUNNY     66  56  70 W3        29.91R
STILLWATER     SUNNY     63  56  78 SW6       29.89R
GUTHRIE        SUNNY     64  57  78 W7        29.89R
$$

OKZ008-013-054>072-281400-
NORTHEAST OKLAHOMA

CITY           SKY/WX    TMP DP  RH WIND       PRES   REMARKS
TULSA          PTSUNNY   68  64  87 SW9       29.87R
TULSA/JONES    CLOUDY    68  63  84 S12       29.89R
PONCA CITY     SUNNY     62  55  77 W7        29.86R
BARTLESVILLE   MOSUNNY   67  61  81 SW14      29.88R
MUSKOGEE       CLOUDY    68  63  84 SW6       29.92R
$$

OKZ032-040>043-046>053-073>077-281400-
SOUTH CENTRAL/SOUTHEAST OKLAHOMA

CITY           SKY/WX    TMP DP  RH WIND       PRES   REMARKS
MCALESTER      CLOUDY    68  62  81 S7        29.92R
$$







000
ASUS44 KOUN 281210
RWROK

WEATHER ROUNDUP FOR OKLAHOMA
NATIONAL WEATHER SERVICE NORMAN OK
700 AM CDT SAT MAY 28 2016

NOTE: "FAIR" INDICATES FEW OR NO CLOUDS BELOW 12,000 FEET WITH NO
      SIGNIFICANT WEATHER AND/OR OBSTRUCTIONS TO VISIBILITY.

OKZ001>007-009>012-014-015-017-281300-
NORTHWEST OKLAHOMA AND THE PANHANDLE

CITY           SKY/WX    TMP DP  RH WIND       PRES   REMARKS
GAGE           CLEAR     51  48  89 SW7       29.92R
6HR MIN TEMP:  49; 6HR MAX TEMP:  57;

GUYMON         CLEAR     49  42  77 VRB3      29.96R
ENID/WOODRING  PTCLDY    57  54  88 W7        29.85R
$$

OKZ016-021>023-033>039-044-045-281300-
SOUTHWEST OKLAHOMA

CITY           SKY/WX    TMP DP  RH WIND       PRES   REMARKS
LAWTON/REGL    CLOUDY    65  63  93 SE7       29.89R
6HR MIN TEMP:  63; 6HR MAX TEMP:  69;

LAWTON/FT SILL CLOUDY    65  65 100 SE6       29.88R
CLINTON        CLEAR     56  49  77 N9        29.92R
HOBART         CLEAR     57  51  80 SE3       29.91R
ALTUS AFB      PTCLDY    56  51  83 NE2       29.90R
$$

OKZ018>020-024>031-281300-
CENTRAL OKLAHOMA

CITY           SKY/WX    TMP DP  RH WIND       PRES   REMARKS
OKLAHOMA CITY  MOCLDY    62  61  96 W5        29.89R
6HR MIN TEMP:  59; 6HR MAX TEMP:  64;

OKC/WILEY POST CLEAR     61  59  93 S5        29.89R
OKC/TINKER AFB CLOUDY    64  63  94 SW9       29.87R
STILLWATER     CLEAR     60  57  89 SW5       29.86R
GUTHRIE        CLEAR     61  60  97 W6        29.87R
$$

OKZ008-013-054>072-281300-
NORTHEAST OKLAHOMA

CITY           SKY/WX    TMP DP  RH WIND       PRES   REMARKS
TULSA          CLOUDY    67  64  90 S10       29.86R
6HR MIN TEMP:  66; 6HR MAX TEMP:  68;

TULSA/JONES    CLOUDY    67  62  84 S9        29.87R
PONCA CITY     CLEAR     59  53  80 W7        29.84R
BARTLESVILLE   CLEAR     63  61  93 VRB5      29.84R
MUSKOGEE       CLOUDY    67  62  84 S8        29.90R
$$

OKZ032-040>043-046>053-073>077-281300-
SOUTH CENTRAL/SOUTHEAST OKLAHOMA

CITY           SKY/WX    TMP DP  RH WIND       PRES   REMARKS
ARDMORE/DWNTWN CLOUDY    66  63  88 CALM      29.90R
MCALESTER      CLOUDY    68  62  81 S9        29.90R
$$







000
ASUS44 KOUN 281100
RWROK

WEATHER ROUNDUP FOR OKLAHOMA
NATIONAL WEATHER SERVICE NORMAN OK
600 AM CDT SAT MAY 28 2016

NOTE: "FAIR" INDICATES FEW OR NO CLOUDS BELOW 12,000 FEET WITH NO
      SIGNIFICANT WEATHER AND/OR OBSTRUCTIONS TO VISIBILITY.

OKZ001>007-009>012-014-015-017-281200-
NORTHWEST OKLAHOMA AND THE PANHANDLE

CITY           SKY/WX    TMP DP  RH WIND       PRES   REMARKS
GAGE           CLEAR     49  47  93 SW8       29.90R
GUYMON         CLEAR     49  42  77 W12       29.93R
$$

OKZ016-021>023-033>039-044-045-281200-
SOUTHWEST OKLAHOMA

CITY           SKY/WX    TMP DP  RH WIND       PRES   REMARKS
LAWTON/REGL    CLOUDY    65  62  90 N5        29.87R
LAWTON/FT SILL CLOUDY    64  64 100 SE6       29.85S
CLINTON        CLEAR     57  49  74 NW14      29.89R
HOBART         CLEAR     58  50  75 N6        29.89R
$$

OKZ018>020-024>031-281200-
CENTRAL OKLAHOMA

CITY           SKY/WX    TMP DP  RH WIND       PRES   REMARKS
OKLAHOMA CITY  PTCLDY    60  60 100 S6        29.86R
OKC/WILEY POST CLEAR     62  60  93 W5        29.86R
STILLWATER     CLEAR     61  60  97 SW7       29.83R
GUTHRIE        CLEAR     62  60  93 W3        29.85R
$$

OKZ008-013-054>072-281200-
NORTHEAST OKLAHOMA

CITY           SKY/WX    TMP DP  RH WIND       PRES   REMARKS
TULSA          MOCLDY    67  64  90 S12       29.83R
TULSA/JONES    CLOUDY    67  62  84 S9        29.84R
PONCA CITY     CLEAR     60  53  77 SW8       29.81R
BARTLESVILLE   CLEAR     62  59  90 S6        29.81S
MUSKOGEE       CLOUDY    66  62  87 S6        29.87R
$$

OKZ032-040>043-046>053-073>077-281200-
SOUTH CENTRAL/SOUTHEAST OKLAHOMA

CITY           SKY/WX    TMP DP  RH WIND       PRES   REMARKS
MCALESTER      CLOUDY    68  62  81 S6        29.88R
$$







000
ASUS44 KOUN 280710
RWROK

WEATHER ROUNDUP FOR OKLAHOMA
NATIONAL WEATHER SERVICE NORMAN OK
200 AM CDT SAT MAY 28 2016

NOTE: "FAIR" INDICATES FEW OR NO CLOUDS BELOW 12,000 FEET WITH NO
      SIGNIFICANT WEATHER AND/OR OBSTRUCTIONS TO VISIBILITY.

OKZ001>007-009>012-014-015-017-280800-
NORTHWEST OKLAHOMA AND THE PANHANDLE

CITY           SKY/WX    TMP DP  RH WIND       PRES   REMARKS
GAGE           PTCLDY    56  48  74 W9        29.84R
GUYMON         CLEAR     52  43  71 W9        29.90R
ENID/WOODRING  CLEAR     61  59  94 S6        29.76S
$$

OKZ016-021>023-033>039-044-045-280800-
SOUTHWEST OKLAHOMA

CITY           SKY/WX    TMP DP  RH WIND       PRES   REMARKS
LAWTON/REGL    CLEAR     68  63  84 SE8       29.80R
LAWTON/FT SILL CLEAR     66  65  97 SE8       29.79R
CLINTON        CLEAR     61  49  64 NW9       29.84S
HOBART         PTCLDY    69  58  67 NW6       29.83R
ALTUS AFB      PTCLDY    67  64  91 N7        29.81R
$$

OKZ018>020-024>031-280800-
CENTRAL OKLAHOMA

CITY           SKY/WX    TMP DP  RH WIND       PRES   REMARKS
OKLAHOMA CITY  CLEAR     63  61  93 S8        29.80R
OKC/WILEY POST CLEAR     65  60  84 SW8       29.80R
OKC/TINKER AFB CLEAR     64  60  89 S12       29.78S
STILLWATER     CLEAR     65  59  81 SW9       29.77R
GUTHRIE        CLEAR     65  61  87 S9        29.78R
$$

OKZ008-013-054>072-280800-
NORTHEAST OKLAHOMA

CITY           SKY/WX    TMP DP  RH WIND       PRES   REMARKS
TULSA          PTCLDY    67  64  90 S6        29.76R
TULSA/JONES    CLEAR     69  59  70 S9        29.77S
PONCA CITY     CLEAR     64  58  80 SW9       29.75R
BARTLESVILLE   CLEAR     60  58  92 SW3       29.77S
MUSKOGEE       CLEAR     63  60  90 S6        29.81R
$$

OKZ032-040>043-046>053-073>077-280800-
SOUTH CENTRAL/SOUTHEAST OKLAHOMA

CITY           SKY/WX    TMP DP  RH WIND       PRES   REMARKS
ARDMORE/DWNTWN CLOUDY    64  63  94 S8        29.82S
MCALESTER      CLOUDY    67  63  87 S13G18    29.83R
$$







000
ASUS44 KOUN 280610
RWROK

WEATHER ROUNDUP FOR OKLAHOMA
NATIONAL WEATHER SERVICE NORMAN OK
100 AM CDT SAT MAY 28 2016

NOTE: "FAIR" INDICATES FEW OR NO CLOUDS BELOW 12,000 FEET WITH NO
      SIGNIFICANT WEATHER AND/OR OBSTRUCTIONS TO VISIBILITY.

OKZ001>007-009>012-014-015-017-280700-
NORTHWEST OKLAHOMA AND THE PANHANDLE

CITY           SKY/WX    TMP DP  RH WIND       PRES   REMARKS
GAGE           CLEAR     57  48  72 W8        29.83R
6HR MIN TEMP:  57; 6HR MAX TEMP:  77;

GUYMON         CLEAR     51  44  77 SW9       29.89R
ENID/WOODRING  CLEAR     63  59  88 S10       29.75R
$$

OKZ016-021>023-033>039-044-045-280700-
SOUTHWEST OKLAHOMA

CITY           SKY/WX    TMP DP  RH WIND       PRES   REMARKS
LAWTON/REGL    CLEAR     69  65  86 SE8       29.79S
6HR MIN TEMP:  69; 6HR MAX TEMP:  85;

LAWTON/FT SILL CLEAR     68  66  94 S9        29.78S
CLINTON        CLEAR     64  48  56 NW10      29.84R
HOBART         CLEAR     69  64  84 S8        29.80S
ALTUS AFB      CLEAR     62  59  91 NE6       29.77S
$$

OKZ018>020-024>031-280700-
CENTRAL OKLAHOMA

CITY           SKY/WX    TMP DP  RH WIND       PRES   REMARKS
OKLAHOMA CITY  CLEAR     64  61  90 S9        29.78R
6HR MIN TEMP:  63; 6HR MAX TEMP:  70; 6HR PCP: TRACE;

OKC/WILEY POST CLEAR     66  61  84 S10       29.78R
OKC/TINKER AFB CLEAR     64  60  87 S12       29.78R
STILLWATER     CLEAR     64  59  83 S8        29.76R
GUTHRIE        CLEAR     66  61  84 S9        29.77R
$$

OKZ008-013-054>072-280700-
NORTHEAST OKLAHOMA

CITY           SKY/WX    TMP DP  RH WIND       PRES   REMARKS
TULSA          PTCLDY    68  65  90 SE8       29.75S
6HR MIN TEMP:  67; 6HR MAX TEMP:  77;

TULSA/JONES    CLEAR     70  57  63 S3        29.77R
PONCA CITY     CLEAR     66  59  78 S7        29.73F
BARTLESVILLE   CLEAR     61  58  90 SE3       29.77S
MUSKOGEE       CLEAR     64  61  90 S5        29.80R
$$

OKZ032-040>043-046>053-073>077-280700-
SOUTH CENTRAL/SOUTHEAST OKLAHOMA

CITY           SKY/WX    TMP DP  RH WIND       PRES   REMARKS
ARDMORE/DWNTWN CLEAR     64  63  94 SE5       29.81S
MCALESTER      CLEAR     67  62  84 S7        29.82R
$$







000
ASUS44 KOUN 280510
RWROK

WEATHER ROUNDUP FOR OKLAHOMA
NATIONAL WEATHER SERVICE NORMAN OK
1200 AM CDT SAT MAY 28 2016

NOTE: "FAIR" INDICATES FEW OR NO CLOUDS BELOW 12,000 FEET WITH NO
      SIGNIFICANT WEATHER AND/OR OBSTRUCTIONS TO VISIBILITY.

OKZ001>007-009>012-014-015-017-280600-
NORTHWEST OKLAHOMA AND THE PANHANDLE

CITY           SKY/WX    TMP DP  RH WIND       PRES   REMARKS
GAGE           CLEAR     60  46  59 W13       29.82R
GUYMON         CLEAR     52  44  74 W8        29.88R
ENID/WOODRING  CLEAR     63  59  88 S8        29.73R
$$

OKZ016-021>023-033>039-044-045-280600-
SOUTHWEST OKLAHOMA

CITY           SKY/WX    TMP DP  RH WIND       PRES   REMARKS
LAWTON/REGL    CLEAR     71  67  87 SE10      29.79R
LAWTON/FT SILL CLEAR     70  68  93 SE10      29.78R
CLINTON        CLEAR     64  50  60 NW7       29.83R
HOBART         CLEAR     70  62  76 S12       29.80R
ALTUS AFB      CLEAR     65  59  83 E6        29.77S
$$

OKZ018>020-024>031-280600-
CENTRAL OKLAHOMA

CITY           SKY/WX    TMP DP  RH WIND       PRES   REMARKS
OKLAHOMA CITY  CLEAR     64  61  90 S13       29.77S
OKC/WILEY POST CLEAR     65  60  84 S14       29.77R
OKC/TINKER AFB CLEAR     63  60  87 S13       29.76F
STILLWATER     CLEAR     64  57  78 S6        29.75R
GUTHRIE        CLEAR     66  59  78 S14       29.75R
$$

OKZ008-013-054>072-280600-
NORTHEAST OKLAHOMA

CITY           SKY/WX    TMP DP  RH WIND       PRES   REMARKS
TULSA          CLOUDY    69  66  90 SE7       29.75R
TULSA/JONES    PTCLDY    69  65  86 SE3       29.76R
PONCA CITY     CLEAR     63  60  90 SE9       29.74R
BARTLESVILLE   MOCLDY    62  58  86 CALM      29.77F
MUSKOGEE       CLOUDY    67  62  84 SE10      29.79R
$$

OKZ032-040>043-046>053-073>077-280600-
SOUTH CENTRAL/SOUTHEAST OKLAHOMA

CITY           SKY/WX    TMP DP  RH WIND       PRES   REMARKS
ARDMORE/DWNTWN CLEAR     66  61  82 SE6       29.81S
MCALESTER      CLOUDY    68  62  81 S5        29.80R
$$







000
ASUS44 KOUN 280310
RWROK

WEATHER ROUNDUP FOR OKLAHOMA
NATIONAL WEATHER SERVICE NORMAN OK
1000 PM CDT FRI MAY 27 2016

NOTE: "FAIR" INDICATES FEW OR NO CLOUDS BELOW 12,000 FEET WITH NO
      SIGNIFICANT WEATHER AND/OR OBSTRUCTIONS TO VISIBILITY.

OKZ001>007-009>012-014-015-017-280400-
NORTHWEST OKLAHOMA AND THE PANHANDLE

CITY           SKY/WX    TMP DP  RH WIND       PRES   REMARKS
GAGE           CLEAR     67  46  47 W13       29.74R
GUYMON         CLOUDY    60  45  57 NW13G21   29.81R
ENID/WOODRING  CLEAR     68  64  88 S12       29.69R
$$

OKZ016-021>023-033>039-044-045-280400-
SOUTHWEST OKLAHOMA

CITY           SKY/WX    TMP DP  RH WIND       PRES   REMARKS
LAWTON/REGL    CLEAR     74  67  78 E3        29.74R
LAWTON/FT SILL CLEAR     71  65  84 SE5       29.74R
CLINTON        CLEAR     65  53  65 SE3       29.77R
HOBART         CLEAR     72  53  51 N8        29.75R
ALTUS AFB      CLEAR     66  56  68 N7        29.73R
$$

OKZ018>020-024>031-280400-
CENTRAL OKLAHOMA

CITY           SKY/WX    TMP DP  RH WIND       PRES   REMARKS
OKLAHOMA CITY  CLEAR     63  57  81 S10       29.75R
OKC/WILEY POST CLEAR     67  55  65 S16       29.74R
OKC/TINKER AFB CLOUDY    65  57  75 S13       29.75R
STILLWATER     CLOUDY    66  64  93 W3        29.71R
GUTHRIE        CLOUDY    65  58  78 S10       29.72R
$$

OKZ008-013-054>072-280400-
NORTHEAST OKLAHOMA

CITY           SKY/WX    TMP DP  RH WIND       PRES   REMARKS
TULSA          CLOUDY    73  65  75 SE12      29.71R
TULSA/JONES    MOCLDY    73  64  73 S6        29.73R
PONCA CITY     PTCLDY    64  60  87 E12       29.71R
BARTLESVILLE   CLOUDY    68  54  60 VRB6      29.76R
MUSKOGEE       CLOUDY    70  64  81 SE15G21   29.74S
$$

OKZ032-040>043-046>053-073>077-280400-
SOUTH CENTRAL/SOUTHEAST OKLAHOMA

CITY           SKY/WX    TMP DP  RH WIND       PRES   REMARKS
ARDMORE/DWNTWN CLOUDY    72  61  68 E8        29.80R
MCALESTER      MOCLDY    71  64  78 S8        29.81R
$$







000
ASUS44 KOUN 280110
RWROK

WEATHER ROUNDUP FOR OKLAHOMA
NATIONAL WEATHER SERVICE NORMAN OK
800 PM CDT FRI MAY 27 2016

NOTE: "FAIR" INDICATES FEW OR NO CLOUDS BELOW 12,000 FEET WITH NO
      SIGNIFICANT WEATHER AND/OR OBSTRUCTIONS TO VISIBILITY.

OKZ001>007-009>012-014-015-017-280200-
NORTHWEST OKLAHOMA AND THE PANHANDLE

CITY           SKY/WX    TMP DP  RH WIND       PRES   REMARKS
GAGE           CLEAR     75  43  31 W16G31    29.68R
GUYMON         CLEAR     67  45  45 NW20      29.74R
ENID/WOODRING  PTCLDY    79  59  50 S6        29.64R
$$

OKZ016-021>023-033>039-044-045-280200-
SOUTHWEST OKLAHOMA

CITY           SKY/WX    TMP DP  RH WIND       PRES   REMARKS
LAWTON/REGL    CLEAR     81  62  52 CALM      29.66R
LAWTON/FT SILL CLEAR     83  55  37 N2        29.66R
CLINTON        CLEAR     79  47  32 NW9       29.71R
HOBART         CLEAR     81  53  37 W5        29.69R
ALTUS AFB      CLEAR     83  46  27 W6        29.66R
$$

OKZ018>020-024>031-280200-
CENTRAL OKLAHOMA

CITY           SKY/WX    TMP DP  RH WIND       PRES   REMARKS
OKLAHOMA CITY  CLOUDY    69  60  73 SE12      29.68R
OKC/WILEY POST CLOUDY    70  61  73 S14       29.67S
OKC/TINKER AFB PTCLDY    69  59  70 SE13G18   29.68R
STILLWATER     CLOUDY    75  64  68 S12       29.66R
GUTHRIE        MOCLDY    70  65  84 SW5       29.67R
$$

OKZ008-013-054>072-280200-
NORTHEAST OKLAHOMA

CITY           SKY/WX    TMP DP  RH WIND       PRES   REMARKS
TULSA          CLOUDY    76  64  66 S17       29.66R
TULSA/JONES    CLOUDY    76  63  64 S8        29.67S
PONCA CITY     LGT RAIN  65  61  87 SE9       29.64S
BARTLESVILLE   CLOUDY    74  63  68 S6        29.69R
MUSKOGEE       CLOUDY    73  65  75 SE9       29.72R
$$

OKZ032-040>043-046>053-073>077-280200-
SOUTH CENTRAL/SOUTHEAST OKLAHOMA

CITY           SKY/WX    TMP DP  RH WIND       PRES   REMARKS
ARDMORE/DWNTWN CLOUDY    75  64  69 S12G17    29.70R
MCALESTER      CLOUDY    73  64  73 S7        29.76R
$$







000
ASUS44 KOUN 280000
RWROK

WEATHER ROUNDUP FOR OKLAHOMA
NATIONAL WEATHER SERVICE NORMAN OK
700 PM CDT FRI MAY 27 2016

NOTE: "FAIR" INDICATES FEW OR NO CLOUDS BELOW 12,000 FEET WITH NO
      SIGNIFICANT WEATHER AND/OR OBSTRUCTIONS TO VISIBILITY.

OKZ001>007-009>012-014-015-017-280100-
NORTHWEST OKLAHOMA AND THE PANHANDLE

CITY           SKY/WX    TMP DP  RH WIND       PRES   REMARKS
GAGE           SUNNY     77  46  33 W15       29.67F
6HR MIN TEMP:  74; 6HR MAX TEMP:  79;

GUYMON         MOSUNNY   70  43  37 W20G36    29.71R
ENID/WOODRING  PTSUNNY   79  66  65 SE6       29.60F
$$

OKZ016-021>023-033>039-044-045-280100-
SOUTHWEST OKLAHOMA

CITY           SKY/WX    TMP DP  RH WIND       PRES   REMARKS
LAWTON/REGL    SUNNY     85  51  31 VRB6      29.65R
6HR MIN TEMP:  78; 6HR MAX TEMP:  89;

LAWTON/FT SILL SUNNY     85  53  33 W6        29.64S
CLINTON        SUNNY     82  43  25 W16       29.68S
HOBART         SUNNY     83  47  28 W10       29.67R
$$

OKZ018>020-024>031-280100-
CENTRAL OKLAHOMA

CITY           SKY/WX    TMP DP  RH WIND       PRES   REMARKS
OKLAHOMA CITY  TSTM      68  61  78 S12       29.68R
6HR MIN TEMP:  68; 6HR MAX TEMP:  82; 6HR PCP:  0.01;

OKC/WILEY POST TSTM      74  66  76 SE13      29.64F
OKC/TINKER AFB RAIN      73  66  78 S12       29.67R
STILLWATER     CLOUDY    77  63  61 S17       29.61F
GUTHRIE        CLOUDY    76  64  66 S15       29.63S
$$

OKZ008-013-054>072-280100-
NORTHEAST OKLAHOMA

CITY           SKY/WX    TMP DP  RH WIND       PRES   REMARKS
TULSA          CLOUDY    77  64  64 S18       29.64F
6HR MIN TEMP:  77; 6HR MAX TEMP:  79;

TULSA/JONES    PTSUNNY   77  62  59 S12G21    29.67S
PONCA CITY     RAIN      63  59  87 NW8G30    29.65R FOG
BARTLESVILLE   MOSUNNY   76  64  66 S8        29.65F
MUSKOGEE       CLOUDY    75  65  70 S9        29.71R
$$

OKZ032-040>043-046>053-073>077-280100-
SOUTH CENTRAL/SOUTHEAST OKLAHOMA

CITY           SKY/WX    TMP DP  RH WIND       PRES   REMARKS
MCALESTER      CLOUDY    74  65  73 S8        29.73R
$$







000
ASUS44 KOUN 272300
RWROK

WEATHER ROUNDUP FOR OKLAHOMA
NATIONAL WEATHER SERVICE NORMAN OK
600 PM CDT FRI MAY 27 2016

NOTE: "FAIR" INDICATES FEW OR NO CLOUDS BELOW 12,000 FEET WITH NO
      SIGNIFICANT WEATHER AND/OR OBSTRUCTIONS TO VISIBILITY.

OKZ001>007-009>012-014-015-017-280000-
NORTHWEST OKLAHOMA AND THE PANHANDLE

CITY           SKY/WX    TMP DP  RH WIND       PRES   REMARKS
GAGE           PTSUNNY   78  45  30 SW18      29.68S
GUYMON         PTSUNNY   73  42  32 NW23G38   29.69S
ENID/WOODRING  PTSUNNY   77  64  65 N8        29.62R THUNDER
$$

OKZ016-021>023-033>039-044-045-280000-
SOUTHWEST OKLAHOMA

CITY           SKY/WX    TMP DP  RH WIND       PRES   REMARKS
LAWTON/REGL    SUNNY     87  54  32 W13       29.64R
LAWTON/FT SILL SUNNY     86  56  35 W10G23    29.64R
CLINTON        SUNNY     84  45  25 W15       29.68S
HOBART         SUNNY     85  46  25 W18G29    29.66S
$$

OKZ018>020-024>031-280000-
CENTRAL OKLAHOMA

CITY           SKY/WX    TMP DP  RH WIND       PRES   REMARKS
OKLAHOMA CITY  CLOUDY    76  65  68 SE10      29.65F
OKC/WILEY POST MOSUNNY   80  63  55 S14       29.64F
STILLWATER     SUNNY     80  63  55 SE17      29.63F
GUTHRIE        SUNNY     81  63  54 S14       29.63F
$$

OKZ008-013-054>072-280000-
NORTHEAST OKLAHOMA

CITY           SKY/WX    TMP DP  RH WIND       PRES   REMARKS
TULSA          CLOUDY    78  64  61 S13       29.66F
TULSA/JONES    CLOUDY    79  63  57 S12       29.67F
PONCA CITY     MOSUNNY   80  62  54 SE18G26   29.61F
BARTLESVILLE   MOSUNNY   78  65  63 S10       29.67F
MUSKOGEE       CLOUDY    76  64  66 S10       29.70F
$$

OKZ032-040>043-046>053-073>077-280000-
SOUTH CENTRAL/SOUTHEAST OKLAHOMA

CITY           SKY/WX    TMP DP  RH WIND       PRES   REMARKS
MCALESTER      CLOUDY    76  64  66 VRB5      29.72F
$$







    US Dept of Commerce
    National Oceanic and Atmospheric Administration
    National Weather Service
    1325 East West Highway
    Silver Spring, MD 20910
    Page Author: NWS Internet Services Team
Disclaimer
Information Quality
Credits
Glossary
Privacy Policy
Freedom of Information Act (FOIA)
About Us
Career Opportunities